User: anonymous   Login
Location: Hylvaty SDH
(49.9612°N, 16.4057°E)
Time: 23:49:03
(UTC+02:00)
Language:

Altair - Orbit

View from above orbital plane
View from above orbital plane
View from above satellite
View from above satellite

Ground track
Ground track

The orbit data is extracted from the following two-line orbital elements,

1    50U 60009B   20184.37730088 -.00000118 +00000-0 -30231-3 0  9995
2    50 047.2325 074.9524 0114098 010.0687 350.2354 12.20112589672048
Epoch (UTC): 02 July 2020 09:03:18
Eccentricity: 0.0114098
inclination: 47.2325°
perigee height: 1501 km
apogee height: 1683 km
right ascension of ascending node: 74.9524°
argument of perigee: 10.0687°
revolutions per day: 12.20112589
mean anomaly at epoch: 350.2354°
orbit number at epoch: 67204

The dashed part of the orbit path shows where the satellite is in the earth's shadow,  

DLR